Regional Weather Roundup
Issued by NWS

Home | Current Version | Previous Version | Graphics & Text | Print | Product List | Glossary On
Versions: 1 2 3 4 5 6 7 8 9 10 11 12 13 14 15 16 17 18 19 20 21 22 23 24 25 26 27 28 29 30 31 32 33 34 35 36 37 38 39 40 41 42 43 44 45 46 47 48 49 50
000
ASUS43 KLOT 260408
RWRIL

ILLINOIS REGIONAL WEATHER ROUNDUP
NATIONAL WEATHER SERVICE CHICAGO/ROMEOVILLE IL
1100 PM CDT MON MAY 25 2015

NOTE: "FAIR" INDICATES FEW OR NO CLOUDS BELOW 12,000 FEET WITH NO
SIGNIFICANT WEATHER AND/OR OBSTRUCTIONS TO VISIBILITY.

* THESE STATIONS ARE NOT UNDER NWS QUALITY CONTROL. THEY ALSO MAY NOT
  REPORT WEATHER SUCH AS PRECIPITATION OR FOG.

ILZ001-002-007-009-015-016-024-260500-
NORTHWEST ILLINOIS

CITY           SKY/WX    TMP DP  RH WIND       PRES   REMARKS
MOLINE         CLEAR     67  61  81 SE3       29.89F
STERLING*      PTCLDY    70  61  73 S5        29.92F
SAVANNA*       PTCLDY    70  61  73 S6        29.90R
$$

ILZ003-004-008-010-011-017-018-260500-
NORTH CENTRAL ILLINOIS

CITY           SKY/WX    TMP DP  RH WIND       PRES   REMARKS
ROCKFORD       PTCLDY    73  58  59 SW8       29.93S
FREEPORT*      PTCLDY    69  61  75 S13       29.93S
ROCHELLE*      PTCLDY    65  61  88 S6        29.94S
DE KALB*       PTCLDY    63  58  86 S8        29.96S
PERU*          CLEAR     71  62  75 S12       29.95F
$$

ILZ005-006-012>014-019>023-260500-
NORTHEAST ILLINOIS

CITY           SKY/WX    TMP DP  RH WIND       PRES   REMARKS
CHICAGO-OHARE  PTCLDY    71  58  63 S5        29.95R
CHICAGO-MIDWAY PTCLDY    75  60  59 S14       29.97R
AURORA         PTCLDY    70  58  65 S7        29.96R
LANSING*       CLEAR     72  60  66 S13       29.99R
JOLIET*        CLEAR     71  61  70 S7        29.97R
WAUKEGAN       CLEAR     67  59  75 S7        29.94R
DUPAGE AIRPORT PTCLDY    70  59  68 S7        29.95R
KANKAKEE*      CLEAR     71  64  77 S14G21    30.00R
WHEELING       CLEAR     66  59  78 S5        29.96R
MORRIS*        CLEAR     69  59  70 S8        29.95S
ROMEOVILLE*    CLEAR     69  58  69 S9        29.98R
NORTHERLY ISL    N/A     75  57  53 S12         N/A
$$

LMZ740>746-260500-
SOUTHERN LAKE MICHIGAN

STATION/POSITION SKY/WX   TEMP    WIND        PRES    VSBY  WAVE
                          AIR SEA DIR/SP/G                  HT/PER
                          (F)     (DEG/KT/KT) (MB)    (MI)  (FT/S)
SOUTHERN BUOY              48 38  190/ 10/ 12 1014.4R         1/ 4
HARRISON CRIB              75     190/ 11/ 11   N/A
BURNHAM HARBOR             74     200/ 10/ 13   N/A
CALUMET HARBOR             74     170/  6/  9   N/A
BURNS HARBOR               74     190/ 11/ 15 1015.2R
MICHIGAN CITY              74     170/ 10/ 14   N/A
MICHIGAN CITY 6N           65 52  210/ 10/ 12   N/A           1/ 3
ST. JOSEPH                 64 55  210/ 10/ 12   N/A           1/ 3
$$

ILZ025>027-034>036-040-047-049-050-058-095>099-260500-
WEST-CENTRAL ILLINOIS

CITY           SKY/WX    TMP DP  RH WIND       PRES   REMARKS
QUINCY         CLOUDY    74  65  73 S12       29.89F
GALESBURG*     CLEAR     70  63  78 S7        29.91F
MACOMB*        PTCLDY    71  65  82 SE10      29.92F
JACKSONVILLE*  MOCLDY    75  68  78 SE12      29.94S
PITTSFIELD*    CLOUDY    74  66  76 SE13      29.93F
$$

ILZ028>032-037-038-041>044-048-051>054-059>061-260500-
CENTRAL ILLINOIS

CITY           SKY/WX    TMP DP  RH WIND       PRES   REMARKS
PONTIAC        CLEAR     74  65  75 S15G21    29.97F
BLOOMINGTON    PTCLDY    71  66  84 S14       29.99F
DECATUR        PTCLDY    72  66  81 S13       29.99F
PEORIA         CLEAR     75  65  70 S14G22    29.94F
LACON*         CLEAR     73  64  73 S10G18    29.93F
LINCOLN*       PTCLDY    73  66  78 S12       29.95F
SPRINGFIELD    PTCLDY    74  66  76 S13       29.95F
TAYLORVILLE    PTCLDY    68  64  88 SE7       29.99F
$$

ILZ033-039-045-046-055>057-062-063-260500-
EAST-CENTRAL ILLINOIS

CITY           SKY/WX    TMP DP  RH WIND       PRES   REMARKS
CHAMPAIGN      CLEAR     71  65  81 S14       30.01F
DANVILLE*      MOCLDY    70  65  84 S10       30.01F
RANTOUL*       CLEAR     72  66  82 S10       30.01F
MATTOON        CLEAR     69  65  86 S9        30.01F
PARIS*         CLOUDY    71  66  84 S14       30.05F
$$

ILZ079-100>102-260500-
SOUTHWEST ILLINOIS

CITY           SKY/WX    TMP DP  RH WIND       PRES   REMARKS
ALTON          MOCLDY    71  71 100 SE8       29.97S
BELLEVILLE     MOCLDY    71  70  99 SE10      29.96S
CAHOKIA*       MOCLDY    73  67  81 S8        29.96R
SPARTA*        PTCLDY    69  67  90 SE10      29.99S
$$

ILZ064>066-069>071-074>076-080>082-084>086-088>090-092>094-260500-
SOUTH-CENTRAL ILLINOIS

CITY           SKY/WX    TMP DP  RH WIND       PRES   REMARKS
CARBONDALE     MOCLDY    69  66  90 SE8       30.01R
CAIRO*         FAIR      71  68  92 SE8       30.01S
EFFINGHAM*     CLEAR     70  64  83 SE9       30.03F
MARION         MOCLDY    70  68  94 SE6       30.02S
MT. VERNON     PTCLDY    70  63  78 SE6       30.02S
CENTRALIA*     MOCLDY    69  65  87 SE8       30.00F
SALEM*         MOCLDY    72  67  84 SE5       30.01S
METROPOLIS*    PTCLDY    70  70 100 E5        30.02S
$$

ILZ067-068-072-073-078-083-087-091-260500-
SOUTHEAST ILLINOIS

CITY           SKY/WX    TMP DP  RH WIND       PRES   REMARKS
LAWRENCEVILLE  PTCLDY    67  65  93 SE8       30.04F
FLORA*         PTCLDY    68  65  90 SE7       30.03F
FAIRFIELD*     CLEAR     69  66  92 SE7       30.02S
HARRISBURG*    PTCLDY    69  68  98 SE7       30.04F
ROBINSON*      PTCLDY    68  65  90 S7        30.05F
CARMI*         PTCLDY    68  63  83 SE7       30.03F
$$

ABBREVIATIONS USED IN REMARKS
   TC - TEMPERATURE IN CELSIUS
  WCI - WIND CHILL INDEX
   HX - HEAT INDEX
  VSB - VISIBILITY
$$



USA.gov is the U.S. government's official web portal to all federal, state and local government web resources and services.